Location: Newark
(55.4390°N, 25.0170°E)
Time: 08:45:31
(UTC+00:00)

Envisat - Pass Details

Date: 30 September 2022
Orbit: 763 x 765 km, 98.2° (Epoch: 02 December)

Event Time Altitude Azimuth Distance (km) Brightness Sun altitude
Rises 02:27:04 0° 18° (NNE) 3,249 6.8 -16.6°
Reaches altitude 10° 02:29:28 10° 23° (NNE) 2,318 6.1 -16.3°
Maximum altitude 02:34:26 50° 99° (E) 971 3.9 -15.6°
Drops below altitude 10° 02:39:22 10° 175° (S) 2,301 5.3 -15.0°
Sets 02:41:43 0° 181° (S) 3,222 6.1 -14.6°
